Time,TemperatureF,DewpointF,PressureIn,WindDirection,WindDirectionDegrees,WindSpeedMPH,WindSpeedGustMPH,Humidity,HourlyPrecipIn,Conditions,Clouds,dailyrainin,SolarRadiationWatts/m^2,SoftwareType,DateUTC
2013-07-23 00:00:00,75.0,65.4,29.64,NW,304,0.0,5.0,72,0.00,,CLR,0.01,0.00,VWS V14.01,2013-07-23 05:00:00,
2013-07-23 00:01:00,74.9,65.3,29.64,NW,306,0.0,1.0,72,0.00,,CLR,0.00,0.00,VWS V14.01,2013-07-23 05:01:00,
2013-07-23 00:06:00,74.8,65.6,29.64,NW,306,1.0,6.0,73,0.00,,CLR,0.00,0.00,VWS V14.01,2013-07-23 05:06:00,
2013-07-23 00:10:00,74.7,65.5,29.64,NW,323,0.0,6.0,73,0.00,,CLR,0.00,0.00,VWS V14.01,2013-07-23 05:10:00,
2013-07-23 00:11:00,74.6,65.4,29.65,NNW,344,0.0,2.0,73,0.00,,CLR,0.00,0.00,VWS V14.01,2013-07-23 05:11:00,
2013-07-23 00:16:00,74.5,65.7,29.65,NNW,340,0.0,2.0,74,0.00,,CLR,0.00,0.00,VWS V14.01,2013-07-23 05:16:00,
2013-07-23 00:20:00,74.4,65.6,29.65,NW,317,0.0,6.0,74,0.00,,CLR,0.00,0.00,VWS V14.01,2013-07-23 05:20:00,
2013-07-23 00:21:00,74.3,65.5,29.65,WNW,285,0.0,4.0,74,0.00,,CLR,0.00,0.00,VWS V14.01,2013-07-23 05:21:00,
2013-07-23 00:26:00,74.2,65.8,29.65,North,5,10.0,17.0,75,0.00,,CLR,0.00,0.00,VWS V14.01,2013-07-23 05:26:00,
2013-07-23 00:30:00,73.9,65.5,29.65,NNW,333,8.0,17.0,75,0.00,,CLR,0.00,0.00,VWS V14.01,2013-07-23 05:30:00,
2013-07-23 00:31:00,73.9,65.5,29.65,NE,42,5.0,13.0,75,0.00,,CLR,0.00,0.00,VWS V14.01,2013-07-23 05:31:00,
2013-07-23 00:36:00,73.3,63.3,29.66,North,360,5.0,16.0,71,0.00,,CLR,0.00,0.00,VWS V14.01,2013-07-23 05:36:00,
2013-07-23 00:40:00,72.8,62.9,29.66,NNE,14,5.0,16.0,71,0.00,,CLR,0.00,0.00,VWS V14.01,2013-07-23 05:40:00,
2013-07-23 00:41:00,72.7,62.4,29.66,NNE,16,6.0,9.0,70,0.00,,CLR,0.00,0.00,VWS V14.01,2013-07-23 05:41:00,
2013-07-23 00:46:00,72.3,62.4,29.66,North,9,4.0,10.0,71,0.00,,SCT020,0.00,0.00,VWS V14.01,2013-07-23 05:46:00,
2013-07-23 00:50:00,72.1,62.6,29.67,NNW,345,2.0,10.0,72,0.00,,CLR,0.00,0.00,VWS V14.01,2013-07-23 05:50:00,
2013-07-23 00:51:00,72.0,62.5,29.67,North,355,1.0,5.0,72,0.00,,SCT020,0.00,0.00,VWS V14.01,2013-07-23 05:51:00,
2013-07-23 00:56:00,71.7,62.2,29.67,NNW,344,0.0,12.0,72,0.00,,SCT020,0.00,0.00,VWS V14.01,2013-07-23 05:56:00,
2013-07-23 01:00:00,71.5,62.4,29.67,North,355,10.0,12.0,73,0.00,,CLR,0.00,0.00,VWS V14.01,2013-07-23 06:00:00,
2013-07-23 01:01:00,71.4,61.9,29.68,NNE,15,4.0,10.0,72,0.00,,OVC020,0.00,0.00,VWS V14.01,2013-07-23 06:01:00,
2013-07-23 01:06:00,71.1,61.6,29.68,NNE,33,5.0,10.0,72,0.00,,OVC020,0.00,0.00,VWS V14.01,2013-07-23 06:06:00,
2013-07-23 01:10:00,70.9,61.0,29.68,NW,324,4.0,10.0,71,0.00,,CLR,0.00,0.00,VWS V14.01,2013-07-23 06:10:00,
2013-07-23 01:11:00,70.8,60.9,29.68,NW,326,0.0,4.0,71,0.00,,OVC020,0.00,0.00,VWS V14.01,2013-07-23 06:11:00,
2013-07-23 01:16:00,70.6,60.8,29.68,North,360,6.0,6.0,71,0.00,,OVC026,0.00,0.00,VWS V14.01,2013-07-23 06:16:00,
2013-07-23 01:20:00,70.4,60.6,29.68,NNE,21,3.0,6.0,71,0.00,,CLR,0.00,0.00,VWS V14.01,2013-07-23 06:20:00,
2013-07-23 01:21:00,70.4,60.6,29.67,North,5,5.0,5.0,71,0.00,,OVC026,0.00,0.00,VWS V14.01,2013-07-23 06:21:00,
2013-07-23 01:26:00,70.2,60.4,29.67,North,5,2.0,5.0,71,0.00,,OVC026,0.00,0.00,VWS V14.01,2013-07-23 06:26:00,
2013-07-23 01:30:00,70.1,60.3,29.67,North,5,0.0,5.0,71,0.00,,CLR,0.00,0.00,VWS V14.01,2013-07-23 06:30:00,
2013-07-23 01:31:00,70.0,60.2,29.67,NNE,26,3.0,5.0,71,0.00,,OVC026,0.00,0.00,VWS V14.01,2013-07-23 06:31:00,
2013-07-23 01:36:00,69.9,60.1,29.67,NNW,336,2.0,5.0,71,0.00,,OVC026,0.00,0.00,VWS V14.01,2013-07-23 06:36:00,
2013-07-23 01:40:00,69.7,59.9,29.67,NNW,345,0.0,5.0,71,0.00,,CLR,0.00,0.00,VWS V14.01,2013-07-23 06:40:00,
2013-07-23 01:41:00,69.8,60.4,29.67,NNW,345,1.0,2.0,72,0.00,,OVC026,0.00,0.00,VWS V14.01,2013-07-23 06:41:00,
2013-07-23 01:46:00,69.6,60.2,29.67,North,360,0.0,4.0,72,0.00,,BKN028,0.00,0.00,VWS V14.01,2013-07-23 06:46:00,
2013-07-23 01:50:00,69.5,60.1,29.68,North,355,0.0,4.0,72,0.00,,CLR,0.00,0.00,VWS V14.01,2013-07-23 06:50:00,
2013-07-23 01:51:00,69.4,60.0,29.67,North,355,0.0,2.0,72,0.00,,BKN028,0.00,0.00,VWS V14.01,2013-07-23 06:51:00,
2013-07-23 01:56:00,69.2,60.2,29.67,North,355,0.0,3.0,73,0.00,,BKN028,0.00,0.00,VWS V14.01,2013-07-23 06:56:00,
2013-07-23 02:00:00,69.1,60.5,29.67,WNW,285,2.0,9.0,74,0.00,,CLR,0.00,0.00,VWS V14.01,2013-07-23 07:00:00,
2013-07-23 02:01:00,69.1,60.1,29.67,NNW,329,0.0,4.0,73,0.00,,BKN028,0.00,0.00,VWS V14.01,2013-07-23 07:01:00,
2013-07-23 02:06:00,69.0,59.6,29.68,NW,325,0.0,4.0,72,0.00,,BKN028,0.00,0.00,VWS V14.01,2013-07-23 07:06:00,
2013-07-23 02:10:00,68.8,59.4,29.68,NNE,15,0.0,4.0,72,0.00,,CLR,0.00,0.00,VWS V14.01,2013-07-23 07:10:00,
2013-07-23 02:11:00,68.8,59.4,29.68,NNE,15,1.0,1.0,72,0.00,,BKN028,0.00,0.00,VWS V14.01,2013-07-23 07:11:00,
2013-07-23 02:16:00,68.7,59.3,29.67,NNE,14,0.0,1.0,72,0.00,,BKN028,0.00,0.00,VWS V14.01,2013-07-23 07:16:00,
2013-07-23 02:20:00,68.6,59.2,29.68,NNE,14,0.0,1.0,72,0.00,,CLR,0.00,0.00,VWS V14.01,2013-07-23 07:20:00,
2013-07-23 02:21:00,68.6,59.2,29.68,NNE,14,0.0,3.0,72,0.00,,OVC028,0.00,0.00,VWS V14.01,2013-07-23 07:21:00,
2013-07-23 02:26:00,68.5,58.7,29.67,NNE,14,3.0,3.0,71,0.00,,OVC028,0.00,0.00,VWS V14.01,2013-07-23 07:26:00,
2013-07-23 02:30:00,68.4,58.6,29.68,NNE,14,0.0,3.0,71,0.00,,CLR,0.00,0.00,VWS V14.01,2013-07-23 07:30:00,
2013-07-23 02:31:00,68.4,58.6,29.67,NNE,14,0.0,1.0,71,0.00,,OVC028,0.00,0.00,VWS V14.01,2013-07-23 07:31:00,
2013-07-23 02:36:00,68.3,58.5,29.68,NNE,14,0.0,2.0,71,0.00,,OVC028,0.00,0.00,VWS V14.01,2013-07-23 07:36:00,
2013-07-23 02:40:00,68.2,58.5,29.68,NNE,14,0.0,2.0,71,0.00,,CLR,0.00,0.00,VWS V14.01,2013-07-23 07:40:00,
2013-07-23 02:41:00,68.2,58.5,29.68,North,11,0.0,3.0,71,0.00,,OVC028,0.00,0.00,VWS V14.01,2013-07-23 07:41:00,
2013-07-23 02:46:00,68.1,58.3,29.68,North,11,0.0,3.0,71,0.00,,OVC028,0.00,0.00,VWS V14.01,2013-07-23 07:46:00,
2013-07-23 02:50:00,67.9,58.2,29.68,NNW,334,0.0,5.0,71,0.00,,CLR,0.00,0.00,VWS V14.01,2013-07-23 07:50:00,
2013-07-23 02:51:00,67.9,58.2,29.69,NNW,334,0.0,1.0,71,0.00,,OVC028,0.00,0.00,VWS V14.01,2013-07-23 07:51:00,
2013-07-23 02:56:00,67.7,58.0,29.68,NNW,334,0.0,1.0,71,0.00,,OVC028,0.00,0.00,VWS V14.01,2013-07-23 07:56:00,
2013-07-23 03:00:00,67.7,58.0,29.69,NNW,334,0.0,1.0,71,0.00,,CLR,0.00,0.00,VWS V14.01,2013-07-23 08:00:00,
2013-07-23 03:01:00,67.7,58.0,29.69,NNW,334,0.0,1.0,71,0.00,,OVC028,0.00,0.00,VWS V14.01,2013-07-23 08:01:00,
2013-07-23 03:06:00,67.6,57.9,29.69,NNW,334,0.0,1.0,71,0.00,,BKN032,0.00,0.00,VWS V14.01,2013-07-23 08:06:00,
2013-07-23 03:10:00,67.5,57.8,29.69,NNW,334,0.0,1.0,71,0.00,,CLR,0.00,0.00,VWS V14.01,2013-07-23 08:10:00,
2013-07-23 03:11:00,67.5,58.2,29.69,NNW,334,0.0,0.0,72,0.00,,BKN032,0.00,0.00,VWS V14.01,2013-07-23 08:11:00,
2013-07-23 03:16:00,67.4,58.1,29.69,North,360,0.0,4.0,72,0.00,,BKN032,0.00,0.00,VWS V14.01,2013-07-23 08:16:00,
2013-07-23 03:20:00,67.3,58.0,29.69,North,360,0.0,4.0,72,0.00,,CLR,0.00,0.00,VWS V14.01,2013-07-23 08:20:00,
2013-07-23 03:21:00,67.2,57.9,29.69,North,360,0.0,0.0,72,0.00,,SCT060,0.00,0.00,VWS V14.01,2013-07-23 08:21:00,
2013-07-23 03:26:00,67.0,57.7,29.69,North,360,0.0,1.0,72,0.00,,SCT060,0.00,0.00,VWS V14.01,2013-07-23 08:26:00,
2013-07-23 03:30:00,66.9,57.6,29.69,North,360,0.0,1.0,72,0.00,,CLR,0.00,0.00,VWS V14.01,2013-07-23 08:30:00,
2013-07-23 03:31:00,66.8,57.5,29.69,North,360,0.0,0.0,72,0.00,,SCT060,0.00,0.00,VWS V14.01,2013-07-23 08:31:00,
2013-07-23 03:36:00,66.7,57.4,29.69,North,360,0.0,0.0,72,0.00,,SCT060,0.00,0.00,VWS V14.01,2013-07-23 08:36:00,
2013-07-23 03:40:00,66.5,57.2,29.69,North,360,0.0,0.0,72,0.00,,CLR,0.00,0.00,VWS V14.01,2013-07-23 08:40:00,
2013-07-23 03:41:00,66.5,57.2,29.69,North,360,0.0,1.0,72,0.00,,SCT060,0.00,0.00,VWS V14.01,2013-07-23 08:41:00,
2013-07-23 03:46:00,66.3,57.4,29.69,North,360,0.0,1.0,73,0.00,,SCT060,0.00,0.00,VWS V14.01,2013-07-23 08:46:00,
2013-07-23 03:50:00,66.1,57.2,29.69,North,360,0.0,1.0,73,0.00,,CLR,0.00,0.00,VWS V14.01,2013-07-23 08:50:00,
2013-07-23 03:51:00,66.1,57.2,29.69,North,360,0.0,1.0,73,0.00,,CLR,0.00,0.00,VWS V14.01,2013-07-23 08:51:00,
2013-07-23 03:56:00,65.9,57.0,29.68,North,360,0.0,1.0,73,0.00,,CLR,0.00,0.00,VWS V14.01,2013-07-23 08:56:00,
2013-07-23 04:00:00,65.8,56.9,29.68,North,360,0.0,1.0,73,0.00,,CLR,0.00,0.00,VWS V14.01,2013-07-23 09:00:00,
2013-07-23 04:01:00,65.8,56.9,29.69,North,360,0.0,0.0,73,0.00,,CLR,0.00,0.00,VWS V14.01,2013-07-23 09:01:00,
2013-07-23 04:06:00,65.6,56.7,29.69,North,360,0.0,1.0,73,0.00,,CLR,0.00,0.00,VWS V14.01,2013-07-23 09:06:00,
2013-07-23 04:10:00,65.5,56.6,29.69,North,360,0.0,1.0,73,0.00,,CLR,0.00,0.00,VWS V14.01,2013-07-23 09:10:00,
2013-07-23 04:11:00,65.5,56.6,29.70,North,360,0.0,0.0,73,0.00,,CLR,0.00,0.00,VWS V14.01,2013-07-23 09:11:00,
2013-07-23 04:16:00,65.4,56.9,29.70,North,360,0.0,1.0,74,0.00,,CLR,0.00,0.00,VWS V14.01,2013-07-23 09:16:00,
2013-07-23 04:20:00,65.3,56.8,29.70,North,360,0.0,2.0,74,0.00,,CLR,0.00,0.00,VWS V14.01,2013-07-23 09:20:00,
2013-07-23 04:21:00,65.2,56.7,29.70,North,360,0.0,2.0,74,0.00,,CLR,0.00,0.00,VWS V14.01,2013-07-23 09:21:00,
2013-07-23 04:26:00,65.1,56.6,29.70,North,360,0.0,2.0,74,0.00,,CLR,0.00,0.00,VWS V14.01,2013-07-23 09:26:00,
2013-07-23 04:30:00,65.0,56.5,29.70,North,360,0.0,2.0,74,0.00,,CLR,0.00,0.00,VWS V14.01,2013-07-23 09:30:00,
2013-07-23 04:31:00,64.9,56.4,29.71,North,360,0.0,1.0,74,0.00,,CLR,0.00,0.00,VWS V14.01,2013-07-23 09:31:00,
2013-07-23 04:36:00,64.8,56.3,29.71,North,360,0.0,1.0,74,0.00,,CLR,0.00,0.00,VWS V14.01,2013-07-23 09:36:00,
2013-07-23 04:40:00,64.7,56.6,29.71,North,360,0.0,1.0,75,0.00,,CLR,0.00,0.00,VWS V14.01,2013-07-23 09:40:00,
2013-07-23 04:41:00,64.7,56.6,29.71,North,360,1.0,1.0,75,0.00,,CLR,0.00,0.00,VWS V14.01,2013-07-23 09:41:00,
2013-07-23 04:46:00,64.5,56.4,29.71,North,360,0.0,1.0,75,0.00,,CLR,0.00,0.00,VWS V14.01,2013-07-23 09:46:00,
2013-07-23 04:50:00,64.4,55.9,29.71,North,360,0.0,2.0,74,0.00,,CLR,0.00,0.00,VWS V14.01,2013-07-23 09:50:00,
2013-07-23 04:51:00,64.3,55.8,29.71,North,360,0.0,2.0,74,0.00,,SCT055,0.00,0.00,VWS V14.01,2013-07-23 09:51:00,
2013-07-23 04:56:00,64.1,55.7,29.71,North,360,0.0,2.0,74,0.00,,SCT055,0.00,0.00,VWS V14.01,2013-07-23 09:56:00,
2013-07-23 05:00:00,63.9,55.8,29.71,North,360,0.0,2.0,75,0.00,,CLR,0.00,0.00,VWS V14.01,2013-07-23 10:00:00,
2013-07-23 05:01:00,63.9,55.8,29.71,North,360,0.0,1.0,75,0.00,,SCT055,0.00,0.00,VWS V14.01,2013-07-23 10:01:00,
2013-07-23 05:06:00,63.6,55.2,29.71,North,360,0.0,1.0,74,0.00,,SCT050,0.00,0.00,VWS V14.01,2013-07-23 10:06:00,
2013-07-23 05:10:00,63.5,55.1,29.71,North,360,0.0,2.0,74,0.00,,CLR,0.00,0.00,VWS V14.01,2013-07-23 10:10:00,
2013-07-23 05:11:00,63.4,55.0,29.71,North,360,0.0,0.0,74,0.00,,SCT050,0.00,0.00,VWS V14.01,2013-07-23 10:11:00,
2013-07-23 05:16:00,63.3,54.9,29.72,North,360,0.0,2.0,74,0.00,,SCT050,0.00,0.00,VWS V14.01,2013-07-23 10:16:00,
2013-07-23 05:20:00,63.1,54.7,29.72,North,360,0.0,2.0,74,0.00,,CLR,0.00,0.00,VWS V14.01,2013-07-23 10:20:00,
2013-07-23 05:21:00,63.1,54.7,29.72,North,360,0.0,0.0,74,0.00,,CLR,0.00,0.00,VWS V14.01,2013-07-23 10:21:00,
2013-07-23 05:26:00,62.9,54.9,29.72,North,360,0.0,1.0,75,0.00,,CLR,0.00,0.00,VWS V14.01,2013-07-23 10:26:00,
2013-07-23 05:30:00,62.9,54.9,29.72,North,360,0.0,1.0,75,0.00,,CLR,0.00,0.00,VWS V14.01,2013-07-23 10:30:00,
2013-07-23 05:31:00,62.8,54.8,29.72,North,360,0.0,1.0,75,0.00,,CLR,0.00,0.00,VWS V14.01,2013-07-23 10:31:00,
2013-07-23 05:36:00,62.7,55.0,29.72,North,360,0.0,1.0,76,0.00,,CLR,0.00,0.00,VWS V14.01,2013-07-23 10:36:00,
2013-07-23 05:40:00,62.5,54.5,29.73,North,350,0.0,3.0,75,0.00,,CLR,0.00,0.00,VWS V14.01,2013-07-23 10:40:00,
2013-07-23 05:41:00,62.5,54.5,29.72,North,355,0.0,2.0,75,0.00,,CLR,0.00,0.00,VWS V14.01,2013-07-23 10:41:00,
2013-07-23 05:46:00,62.3,54.3,29.73,North,355,0.0,3.0,75,0.00,,CLR,0.00,0.00,VWS V14.01,2013-07-23 10:46:00,
2013-07-23 05:50:00,62.1,54.1,29.72,North,355,1.0,3.0,75,0.00,,CLR,0.00,0.00,VWS V14.01,2013-07-23 10:50:00,
2013-07-23 05:51:00,62.1,54.1,29.73,North,355,0.0,1.0,75,0.00,,CLR,0.00,0.00,VWS V14.01,2013-07-23 10:51:00,
2013-07-23 05:56:00,61.9,53.9,29.73,NW,326,0.0,6.0,75,0.00,,CLR,0.00,0.00,VWS V14.01,2013-07-23 10:56:00,
2013-07-23 06:00:00,61.8,53.8,29.73,NW,323,4.0,6.0,75,0.00,,CLR,0.00,0.00,VWS V14.01,2013-07-23 11:00:00,
2013-07-23 06:01:00,61.7,53.3,29.73,NW,322,0.0,4.0,74,0.00,,CLR,0.00,0.00,VWS V14.01,2013-07-23 11:01:00,
2013-07-23 06:06:00,61.6,53.2,29.73,NW,315,0.0,5.0,74,0.00,,CLR,0.00,0.00,VWS V14.01,2013-07-23 11:06:00,
2013-07-23 06:10:00,61.6,53.2,29.73,NNW,336,0.0,5.0,74,0.00,,CLR,0.00,0.00,VWS V14.01,2013-07-23 11:10:00,
2013-07-23 06:11:00,61.6,53.2,29.74,NNW,335,0.0,2.0,74,0.00,,CLR,0.00,0.00,VWS V14.01,2013-07-23 11:11:00,
2013-07-23 06:16:00,61.5,53.2,29.74,WNW,299,0.0,3.0,74,0.00,,CLR,0.00,5.00,VWS V14.01,2013-07-23 11:16:00,
2013-07-23 06:20:00,61.5,53.2,29.74,North,349,2.0,4.0,74,0.00,,CLR,0.00,5.00,VWS V14.01,2013-07-23 11:20:00,
2013-07-23 06:21:00,61.5,53.2,29.74,NNW,344,4.0,4.0,74,0.00,,CLR,0.00,5.00,VWS V14.01,2013-07-23 11:21:00,
2013-07-23 06:26:00,61.5,53.2,29.75,NW,319,3.0,6.0,74,0.00,,CLR,0.00,5.00,VWS V14.01,2013-07-23 11:26:00,
2013-07-23 06:30:00,61.5,53.2,29.74,NW,318,0.0,6.0,74,0.00,,CLR,0.00,7.00,VWS V14.01,2013-07-23 11:30:00,
2013-07-23 06:31:00,61.5,53.2,29.74,WNW,299,1.0,3.0,74,0.00,,CLR,0.00,7.00,VWS V14.01,2013-07-23 11:31:00,
2013-07-23 06:36:00,61.5,52.8,29.74,NW,319,0.0,6.0,73,0.00,,CLR,0.00,7.00,VWS V14.01,2013-07-23 11:36:00,
2013-07-23 06:40:00,61.5,52.8,29.74,NNW,348,4.0,6.0,73,0.00,,CLR,0.00,7.00,VWS V14.01,2013-07-23 11:40:00,
2013-07-23 06:41:00,61.6,52.9,29.74,NW,315,2.0,6.0,73,0.00,,CLR,0.00,7.00,VWS V14.01,2013-07-23 11:41:00,
2013-07-23 06:46:00,61.6,52.9,29.74,WNW,292,2.0,6.0,73,0.00,,CLR,0.00,9.00,VWS V14.01,2013-07-23 11:46:00,
2013-07-23 06:50:00,61.7,53.0,29.75,West,271,4.0,6.0,73,0.00,,CLR,0.00,9.00,VWS V14.01,2013-07-23 11:50:00,
2013-07-23 06:51:00,61.7,53.0,29.75,West,277,5.0,5.0,73,0.00,,CLR,0.00,9.00,VWS V14.01,2013-07-23 11:51:00,
2013-07-23 06:56:00,61.8,53.1,29.75,WNW,298,8.0,9.0,73,0.00,,CLR,0.00,9.00,VWS V14.01,2013-07-23 11:56:00,
2013-07-23 07:00:00,61.8,53.1,29.75,NW,326,2.0,10.0,73,0.00,,CLR,0.00,9.00,VWS V14.01,2013-07-23 12:00:00,
2013-07-23 07:01:00,61.8,53.1,29.75,NNW,345,0.0,4.0,73,0.00,,CLR,0.00,11.00,VWS V14.01,2013-07-23 12:01:00,
2013-07-23 07:06:00,61.9,53.2,29.75,NNE,30,5.0,6.0,73,0.00,,CLR,0.00,11.00,VWS V14.01,2013-07-23 12:06:00,
2013-07-23 07:10:00,62.0,52.9,29.76,NNW,337,0.0,9.0,72,0.00,,CLR,0.00,11.00,VWS V14.01,2013-07-23 12:10:00,
2013-07-23 07:11:00,62.0,52.9,29.76,NNW,327,1.0,4.0,72,0.00,,CLR,0.00,11.00,VWS V14.01,2013-07-23 12:11:00,
2013-07-23 07:15:00,62.0,52.9,29.76,North,355,1.0,11.0,72,0.00,,CLR,0.00,12.00,VWS V14.01,2013-07-23 12:15:00,
2013-07-23 07:20:00,62.1,53.0,29.76,NNW,336,3.0,6.0,72,0.00,,CLR,0.00,12.00,VWS V14.01,2013-07-23 12:20:00,
2013-07-23 07:25:00,62.2,53.1,29.76,NNE,12,4.0,11.0,72,0.00,,CLR,0.00,14.00,VWS V14.01,2013-07-23 12:25:00,
2013-07-23 07:30:00,62.3,52.8,29.76,NNE,33,5.0,9.0,71,0.00,,CLR,0.00,14.00,VWS V14.01,2013-07-23 12:30:00,
2013-07-23 07:36:00,62.4,53.3,29.76,NW,312,7.0,11.0,72,0.00,,CLR,0.00,16.00,VWS V14.01,2013-07-23 12:36:00,
2013-07-23 07:40:00,62.4,53.3,29.76,NNE,25,4.0,16.0,72,0.00,,CLR,0.00,16.00,VWS V14.01,2013-07-23 12:40:00,
2013-07-23 07:41:00,62.5,53.0,29.76,NNE,16,6.0,11.0,71,0.00,,CLR,0.00,18.00,VWS V14.01,2013-07-23 12:41:00,
2013-07-23 07:46:00,62.5,53.0,29.77,NW,317,9.0,14.0,71,0.00,,CLR,0.00,18.00,VWS V14.01,2013-07-23 12:46:00,
2013-07-23 07:50:00,62.5,53.4,29.77,NNE,16,9.0,16.0,72,0.00,,CLR,0.00,19.00,VWS V14.01,2013-07-23 12:50:00,
2013-07-23 07:51:00,62.5,53.4,29.77,NNE,22,4.0,10.0,72,0.00,,CLR,0.00,19.00,VWS V14.01,2013-07-23 12:51:00,
2013-07-23 07:56:00,62.5,52.6,29.76,West,273,7.0,13.0,70,0.00,,CLR,0.00,21.00,VWS V14.01,2013-07-23 12:56:00,
2013-07-23 08:00:00,62.5,52.6,29.77,North,355,11.0,13.0,70,0.00,,CLR,0.00,21.00,VWS V14.01,2013-07-23 13:00:00,
2013-07-23 08:05:00,62.5,52.6,29.77,NW,304,8.0,15.0,70,0.00,,CLR,0.00,39.00,VWS V14.01,2013-07-23 13:05:00,
2013-07-23 08:10:00,62.5,53.0,29.78,NNW,340,2.0,10.0,71,0.00,,CLR,0.00,25.00,VWS V14.01,2013-07-23 13:10:00,
2013-07-23 08:15:00,62.6,52.7,29.78,NNE,13,12.0,14.0,70,0.00,,CLR,0.00,26.00,VWS V14.01,2013-07-23 13:15:00,
2013-07-23 08:20:00,62.7,52.8,29.78,West,279,10.0,10.0,70,0.00,,CLR,0.00,39.00,VWS V14.01,2013-07-23 13:20:00,
2013-07-23 08:25:00,62.8,52.5,29.78,NW,311,6.0,13.0,69,0.00,,CLR,0.00,30.00,VWS V14.01,2013-07-23 13:25:00,
2013-07-23 08:30:00,62.9,52.6,29.78,NNE,28,4.0,5.0,69,0.00,,CLR,0.00,32.00,VWS V14.01,2013-07-23 13:30:00,
2013-07-23 08:35:00,62.9,52.6,29.78,WNW,298,3.0,14.0,69,0.00,,CLR,0.00,33.00,VWS V14.01,2013-07-23 13:35:00,
2013-07-23 08:40:00,63.0,52.3,29.79,NNW,338,10.0,13.0,68,0.00,,CLR,0.00,35.00,VWS V14.01,2013-07-23 13:40:00,
2013-07-23 08:45:00,63.0,52.7,29.79,NE,40,6.0,13.0,69,0.00,,CLR,0.00,37.00,VWS V14.01,2013-07-23 13:45:00,
2013-07-23 08:50:00,63.1,52.8,29.79,NNW,346,3.0,10.0,69,0.00,,CLR,0.00,39.00,VWS V14.01,2013-07-23 13:50:00,
2013-07-23 08:55:00,63.2,52.5,29.79,NW,323,0.0,10.0,68,0.00,,CLR,0.00,40.00,VWS V14.01,2013-07-23 13:55:00,
2013-07-23 09:00:00,63.3,51.8,29.79,North,351,4.0,6.0,66,0.00,,CLR,0.00,18.00,VWS V14.01,2013-07-23 14:00:00,
2013-07-23 09:05:00,63.4,52.7,29.80,North,11,5.0,14.0,68,0.00,,CLR,0.00,51.00,VWS V14.01,2013-07-23 14:05:00,
2013-07-23 09:10:00,63.5,52.4,29.80,NW,326,0.0,3.0,67,0.00,,CLR,0.00,84.00,VWS V14.01,2013-07-23 14:10:00,
2013-07-23 09:15:00,63.6,53.3,29.81,NW,321,3.0,9.0,69,0.00,,CLR,0.00,67.00,VWS V14.01,2013-07-23 14:15:00,
2013-07-23 09:20:00,63.7,52.1,29.81,NNE,31,2.0,4.0,66,0.00,,CLR,0.00,44.00,VWS V14.01,2013-07-23 14:20:00,
2013-07-23 09:25:00,63.7,51.3,29.80,NE,43,2.0,11.0,64,0.00,,CLR,0.00,49.00,VWS V14.01,2013-07-23 14:25:00,
2013-07-23 09:30:00,63.5,51.5,29.81,NW,319,0.0,10.0,65,0.00,,CLR,0.00,63.00,VWS V14.01,2013-07-23 14:30:00,
2013-07-23 09:35:00,63.3,51.3,29.81,NNE,14,4.0,10.0,65,0.00,,CLR,0.00,30.00,VWS V14.01,2013-07-23 14:35:00,
2013-07-23 09:40:00,63.2,51.2,29.81,NNE,21,4.0,8.0,65,0.00,,CLR,0.00,83.00,VWS V14.01,2013-07-23 14:40:00,
2013-07-23 09:45:00,63.3,51.8,29.81,NNE,26,8.0,13.0,66,0.00,,CLR,0.00,278.00,VWS V14.01,2013-07-23 14:45:00,
2013-07-23 09:50:00,63.5,52.0,29.80,North,360,6.0,10.0,66,0.00,,SCT031,0.00,109.00,VWS V14.01,2013-07-23 14:50:00,
2013-07-23 09:55:00,63.8,52.2,29.81,NNE,15,6.0,12.0,66,0.00,,SCT031,0.00,192.00,VWS V14.01,2013-07-23 14:55:00,
2013-07-23 10:00:00,64.1,52.1,29.81,NNE,15,4.0,6.0,65,0.00,,SCT031,0.00,179.00,VWS V14.01,2013-07-23 15:00:00,
2013-07-23 10:05:00,64.4,52.0,29.81,North,5,7.0,12.0,64,0.00,,SCT031,0.00,146.00,VWS V14.01,2013-07-23 15:05:00,
2013-07-23 10:10:00,64.5,52.1,29.81,WNW,296,2.0,4.0,64,0.00,,SCT031,0.00,58.00,VWS V14.01,2013-07-23 15:10:00,
2013-07-23 10:15:00,64.3,51.5,29.82,NNW,329,3.0,14.0,63,0.00,,SCT031,0.00,76.00,VWS V14.01,2013-07-23 15:15:00,
2013-07-23 10:20:00,64.1,51.3,29.82,North,360,8.0,10.0,63,0.00,,SCT031,0.00,123.00,VWS V14.01,2013-07-23 15:20:00,
2013-07-23 10:25:00,63.9,51.1,29.82,WNW,289,10.0,18.0,63,0.00,,SCT031,0.00,128.00,VWS V14.01,2013-07-23 15:25:00,
2013-07-23 10:30:00,63.7,51.7,29.82,North,355,9.0,10.0,65,0.00,,SCT031,0.00,174.00,VWS V14.01,2013-07-23 15:30:00,
2013-07-23 10:35:00,63.6,50.4,29.82,NNW,329,7.0,15.0,62,0.00,,SCT031,0.00,156.00,VWS V14.01,2013-07-23 15:35:00,
2013-07-23 10:40:00,63.8,51.0,29.82,NW,304,9.0,10.0,63,0.00,,SCT031,0.00,207.00,VWS V14.01,2013-07-23 15:40:00,
2013-07-23 10:45:00,64.0,50.7,29.82,North,5,7.0,13.0,62,0.00,,SCT031,0.00,91.00,VWS V14.01,2013-07-23 15:45:00,
2013-07-23 10:50:00,64.1,50.8,29.82,NNW,340,7.0,12.0,62,0.00,,BKN033,0.00,239.00,VWS V14.01,2013-07-23 15:50:00,
2013-07-23 10:55:00,64.2,50.9,29.82,WNW,302,3.0,12.0,62,0.00,,BKN033,0.00,93.00,VWS V14.01,2013-07-23 15:55:00,
2013-07-23 11:00:00,64.2,51.4,29.82,NNW,330,3.0,12.0,63,0.00,,BKN033,0.00,188.00,VWS V14.01,2013-07-23 16:00:00,
2013-07-23 11:05:00,64.3,51.9,29.82,NE,35,9.0,14.0,64,0.00,,SCT035,0.00,190.00,VWS V14.01,2013-07-23 16:05:00,
2013-07-23 11:10:00,64.5,51.6,29.83,NW,313,11.0,11.0,63,0.00,,SCT035,0.00,230.00,VWS V14.01,2013-07-23 16:10:00,
2013-07-23 11:15:00,64.5,51.6,29.83,West,268,3.0,17.0,63,0.00,,SCT035,0.00,257.00,VWS V14.01,2013-07-23 16:15:00,
2013-07-23 11:20:00,64.5,50.8,29.83,NNW,334,10.0,10.0,61,0.00,,BKN035,0.00,1041.00,VWS V14.01,2013-07-23 16:20:00,
2013-07-23 11:25:00,64.6,50.4,29.84,North,9,4.0,16.0,60,0.00,,BKN035,0.00,262.00,VWS V14.01,2013-07-23 16:25:00,
2013-07-23 11:30:00,64.7,51.0,29.84,NNE,15,9.0,12.0,61,0.00,,BKN035,0.00,262.00,VWS V14.01,2013-07-23 16:30:00,
2013-07-23 11:35:00,64.9,51.2,29.84,NNW,329,6.0,18.0,61,0.00,,BKN035,0.00,918.00,VWS V14.01,2013-07-23 16:35:00,
2013-07-23 11:40:00,65.2,51.4,29.85,North,5,6.0,12.0,61,0.00,,BKN035,0.00,223.00,VWS V14.01,2013-07-23 16:40:00,
2013-07-23 11:45:00,65.2,52.3,29.86,NNW,338,3.0,12.0,63,0.00,,BKN035,0.00,381.00,VWS V14.01,2013-07-23 16:45:00,
2013-07-23 11:50:00,65.5,51.3,29.86,WNW,286,3.0,4.0,60,0.00,,SCT035,0.00,220.00,VWS V14.01,2013-07-23 16:50:00,
2013-07-23 11:55:00,65.4,51.2,29.86,North,360,0.0,9.0,60,0.00,,SCT035,0.00,345.00,VWS V14.01,2013-07-23 16:55:00,
2013-07-23 12:00:00,65.5,50.8,29.86,North,350,2.0,7.0,59,0.00,,SCT035,0.00,345.00,VWS V14.01,2013-07-23 17:00:00,
2013-07-23 12:05:00,65.9,52.1,29.86,North,360,5.0,12.0,61,0.00,,SCT037,0.00,1171.00,VWS V14.01,2013-07-23 17:05:00,
2013-07-23 12:10:00,66.2,51.9,29.86,NNW,348,2.0,11.0,60,0.00,,SCT037,0.00,429.00,VWS V14.01,2013-07-23 17:10:00,
2013-07-23 12:15:00,66.1,50.4,29.85,North,355,7.0,13.0,57,0.00,,SCT037,0.00,1195.00,VWS V14.01,2013-07-23 17:15:00,
2013-07-23 12:20:00,66.5,51.3,29.86,NNE,26,4.0,9.0,58,0.00,,SCT037,0.00,1202.00,VWS V14.01,2013-07-23 17:20:00,
2013-07-23 12:25:00,66.9,50.7,29.86,NW,313,4.0,13.0,56,0.00,,SCT037,0.00,1202.00,VWS V14.01,2013-07-23 17:25:00,
2013-07-23 12:30:00,66.9,50.7,29.86,NNW,344,6.0,12.0,56,0.00,,SCT037,0.00,265.00,VWS V14.01,2013-07-23 17:30:00,
2013-07-23 12:35:00,66.5,52.2,29.86,NNE,24,5.0,12.0,60,0.00,,BKN037,0.00,329.00,VWS V14.01,2013-07-23 17:35:00,
2013-07-23 12:40:00,66.5,53.1,29.86,North,360,8.0,11.0,62,0.00,,BKN037,0.00,700.00,VWS V14.01,2013-07-23 17:40:00,
2013-07-23 12:45:00,67.2,51.9,29.86,North,355,10.0,13.0,58,0.00,,BKN037,0.00,1192.00,VWS V14.01,2013-07-23 17:45:00,
2013-07-23 12:50:00,67.7,51.5,29.86,North,360,7.0,12.0,56,0.00,,BKN037,0.00,341.00,VWS V14.01,2013-07-23 17:50:00,
2013-07-23 12:56:00,67.0,50.3,29.87,WNW,298,4.0,16.0,55,0.00,,BKN037,0.00,243.00,VWS V14.01,2013-07-23 17:56:00,
2013-07-23 13:00:00,66.6,50.4,29.86,NNW,344,2.0,16.0,56,0.00,,CLR,0.00,236.00,VWS V14.01,2013-07-23 18:00:00,
2013-07-23 13:01:00,66.5,51.3,29.86,North,360,11.0,13.0,58,0.00,,OVC037,0.00,227.00,VWS V14.01,2013-07-23 18:01:00,
2013-07-23 13:06:00,66.3,51.1,29.87,NNW,346,7.0,15.0,58,0.00,,OVC037,0.00,239.00,VWS V14.01,2013-07-23 18:06:00,
2013-07-23 13:10:00,67.0,51.3,29.87,NNE,21,4.0,15.0,57,0.00,,CLR,0.00,1206.00,VWS V14.01,2013-07-23 18:10:00,
2013-07-23 13:11:00,67.1,51.4,29.87,WNW,294,10.0,10.0,57,0.00,,OVC037,0.00,1206.00,VWS V14.01,2013-07-23 18:11:00,
2013-07-23 13:16:00,67.4,51.2,29.87,NE,34,4.0,11.0,56,0.00,,OVC039,0.00,1083.00,VWS V14.01,2013-07-23 18:16:00,
2013-07-23 13:20:00,67.8,50.6,29.87,NNW,342,3.0,13.0,54,0.00,,CLR,0.00,1102.00,VWS V14.01,2013-07-23 18:20:00,
2013-07-23 13:21:00,67.7,50.5,29.87,NW,321,2.0,12.0,54,0.00,,OVC039,0.00,1086.00,VWS V14.01,2013-07-23 18:21:00,
2013-07-23 13:26:00,68.1,51.3,29.86,North,355,2.0,17.0,55,0.00,,OVC039,0.00,1171.00,VWS V14.01,2013-07-23 18:26:00,
2013-07-23 13:30:00,68.2,51.4,29.87,NNE,28,12.0,17.0,55,0.00,,CLR,0.00,1171.00,VWS V14.01,2013-07-23 18:30:00,
2013-07-23 13:31:00,68.2,50.9,29.86,NNW,346,7.0,12.0,54,0.00,,OVC039,0.00,1208.00,VWS V14.01,2013-07-23 18:31:00,
2013-07-23 13:37:00,68.6,50.8,29.87,NNE,20,9.0,15.0,53,0.00,,OVC039,0.00,1234.00,VWS V14.01,2013-07-23 18:37:00,
2013-07-23 13:40:00,68.8,51.5,29.87,North,360,11.0,15.0,54,0.00,,CLR,0.00,589.00,VWS V14.01,2013-07-23 18:40:00,
2013-07-23 13:42:00,68.5,51.2,29.86,North,5,5.0,14.0,54,0.00,,OVC039,0.00,316.00,VWS V14.01,2013-07-23 18:42:00,
2013-07-23 13:47:00,68.8,53.0,29.87,NW,319,7.0,14.0,57,0.00,,OVC041,0.00,1278.00,VWS V14.01,2013-07-23 18:47:00,
2013-07-23 13:50:00,68.9,51.1,29.86,NE,55,8.0,14.0,53,0.00,,CLR,0.00,1157.00,VWS V14.01,2013-07-23 18:50:00,
2013-07-23 13:52:00,68.8,51.5,29.86,NNW,342,6.0,8.0,54,0.00,,OVC041,0.00,1157.00,VWS V14.01,2013-07-23 18:52:00,
2013-07-23 13:57:00,68.6,50.3,29.86,NNE,19,6.0,13.0,52,0.00,,OVC041,0.00,1148.00,VWS V14.01,2013-07-23 18:57:00,
2013-07-23 14:00:00,68.8,52.0,29.86,NW,307,7.0,13.0,55,0.00,,CLR,0.00,981.00,VWS V14.01,2013-07-23 19:00:00,
2013-07-23 14:02:00,69.1,51.3,29.86,NNW,343,1.0,8.0,53,0.00,,BKN041,0.00,981.00,VWS V14.01,2013-07-23 19:02:00,
2013-07-23 14:07:00,69.6,50.7,29.86,WSW,238,1.0,11.0,51,0.00,,BKN041,0.00,211.00,VWS V14.01,2013-07-23 19:07:00,
2013-07-23 14:10:00,69.5,50.1,29.86,NW,319,3.0,11.0,50,0.00,,CLR,0.00,211.00,VWS V14.01,2013-07-23 19:10:00,
2013-07-23 14:12:00,69.5,51.1,29.87,NNW,328,0.0,12.0,52,0.00,,BKN041,0.00,283.00,VWS V14.01,2013-07-23 19:12:00,
2013-07-23 14:17:00,69.1,51.3,29.87,North,360,4.0,12.0,53,0.00,,BKN043,0.00,281.00,VWS V14.01,2013-07-23 19:17:00,
2013-07-23 14:20:00,69.1,52.3,29.87,North,5,4.0,12.0,55,0.00,,CLR,0.00,281.00,VWS V14.01,2013-07-23 19:20:00,
2013-07-23 14:22:00,69.2,52.4,29.87,NNW,346,0.0,7.0,55,0.00,,BKN043,0.00,330.00,VWS V14.01,2013-07-23 19:22:00,
2013-07-23 14:27:00,69.9,51.5,29.87,WNW,287,2.0,11.0,52,0.00,,BKN043,0.00,1085.00,VWS V14.01,2013-07-23 19:27:00,
2013-07-23 14:30:00,69.8,51.9,29.87,SW,223,2.0,11.0,53,0.00,,CLR,0.00,1137.00,VWS V14.01,2013-07-23 19:30:00,
2013-07-23 14:32:00,70.0,51.6,29.87,NE,35,5.0,7.0,52,0.00,,BKN043,0.00,1137.00,VWS V14.01,2013-07-23 19:32:00,
2013-07-23 14:37:00,69.7,51.8,29.87,NNW,334,7.0,10.0,53,0.00,,BKN043,0.00,127.00,VWS V14.01,2013-07-23 19:37:00,
2013-07-23 14:40:00,69.8,51.4,29.87,North,5,6.0,10.0,52,0.00,,CLR,0.00,1085.00,VWS V14.01,2013-07-23 19:40:00,
2013-07-23 14:42:00,69.9,51.0,29.87,NNW,343,8.0,10.0,51,0.00,,BKN043,0.00,232.00,VWS V14.01,2013-07-23 19:42:00,
2013-07-23 14:47:00,69.6,51.2,29.87,NNW,343,3.0,10.0,52,0.00,,BKN045,0.00,343.00,VWS V14.01,2013-07-23 19:47:00,
2013-07-23 14:50:00,69.8,51.4,29.87,North,11,4.0,13.0,52,0.00,,CLR,0.00,139.00,VWS V14.01,2013-07-23 19:50:00,
2013-07-23 14:53:00,69.9,52.0,29.87,NE,46,6.0,14.0,53,0.00,,BKN045,0.00,155.00,VWS V14.01,2013-07-23 19:53:00,
2013-07-23 14:58:00,69.7,51.8,29.87,North,11,5.0,14.0,53,0.00,,BKN045,0.00,221.00,VWS V14.01,2013-07-23 19:58:00,
2013-07-23 15:00:00,69.6,53.2,29.87,NNE,17,5.0,14.0,56,0.00,,CLR,0.00,156.00,VWS V14.01,2013-07-23 20:00:00,
2013-07-23 15:03:00,69.6,52.7,29.87,NNW,331,2.0,6.0,55,0.00,,BKN045,0.00,155.00,VWS V14.01,2013-07-23 20:03:00,
2013-07-23 15:08:00,69.4,50.5,29.87,NW,310,6.0,10.0,51,0.00,,BKN045,0.00,158.00,VWS V14.01,2013-07-23 20:08:00,
2013-07-23 15:10:00,69.3,52.0,29.87,North,355,5.0,10.0,54,0.00,,CLR,0.00,216.00,VWS V14.01,2013-07-23 20:10:00,
2013-07-23 15:13:00,69.2,51.4,29.87,NNE,22,7.0,12.0,53,0.00,,BKN045,0.00,162.00,VWS V14.01,2013-07-23 20:13:00,
2013-07-23 15:18:00,69.5,49.5,29.87,NNW,328,6.0,12.0,49,0.00,,OVC050,0.00,236.00,VWS V14.01,2013-07-23 20:18:00,
2013-07-23 15:20:00,69.5,50.1,29.87,NNW,337,0.0,12.0,50,0.00,,CLR,0.00,218.00,VWS V14.01,2013-07-23 20:20:00,
2013-07-23 15:23:00,69.6,51.7,29.87,NNE,21,1.0,7.0,53,0.00,,OVC050,0.00,176.00,VWS V14.01,2013-07-23 20:23:00,
2013-07-23 15:28:00,69.6,51.2,29.87,NW,306,2.0,13.0,52,0.00,,OVC050,0.00,207.00,VWS V14.01,2013-07-23 20:28:00,
2013-07-23 15:30:00,69.5,52.2,29.87,NNW,344,5.0,13.0,54,0.00,,CLR,0.00,251.00,VWS V14.01,2013-07-23 20:30:00,
2013-07-23 15:33:00,69.7,51.8,29.87,NNE,22,6.0,7.0,53,0.00,,OVC050,0.00,220.00,VWS V14.01,2013-07-23 20:33:00,
2013-07-23 15:38:00,69.9,50.4,29.87,NNE,22,5.0,12.0,50,0.00,,OVC050,0.00,174.00,VWS V14.01,2013-07-23 20:38:00,
2013-07-23 15:40:00,69.9,52.0,29.87,North,360,7.0,12.0,53,0.00,,CLR,0.00,183.00,VWS V14.01,2013-07-23 20:40:00,
2013-07-23 15:43:00,70.0,52.6,29.87,NW,310,5.0,11.0,54,0.00,,OVC050,0.00,160.00,VWS V14.01,2013-07-23 20:43:00,
2013-07-23 15:48:00,69.9,51.0,29.87,NNW,346,4.0,11.0,51,0.00,,BKN050,0.00,141.00,VWS V14.01,2013-07-23 20:48:00,
2013-07-23 15:50:00,69.9,51.5,29.87,ENE,57,5.0,11.0,52,0.00,,CLR,0.00,139.00,VWS V14.01,2013-07-23 20:50:00,
2013-07-23 15:53:00,69.9,52.5,29.87,NE,43,5.0,10.0,54,0.00,,BKN050,0.00,125.00,VWS V14.01,2013-07-23 20:53:00,
2013-07-23 15:59:00,69.8,51.4,29.87,NNW,336,2.0,10.0,52,0.00,,BKN050,0.00,165.00,VWS V14.01,2013-07-23 20:59:00,
2013-07-23 16:00:00,69.7,51.8,29.87,NNE,22,5.0,10.0,53,0.00,,CLR,0.00,137.00,VWS V14.01,2013-07-23 21:00:00,
2013-07-23 16:04:00,69.8,51.4,29.87,North,9,6.0,14.0,52,0.00,,BKN050,0.00,76.00,VWS V14.01,2013-07-23 21:04:00,
2013-07-23 16:09:00,69.6,51.2,29.87,North,5,4.0,14.0,52,0.00,,BKN050,0.00,86.00,VWS V14.01,2013-07-23 21:09:00,
2013-07-23 16:10:00,69.6,51.2,29.87,NE,51,5.0,14.0,52,0.00,,CLR,0.00,95.00,VWS V14.01,2013-07-23 21:10:00,
2013-07-23 16:14:00,69.4,51.0,29.88,North,355,3.0,7.0,52,0.00,,BKN050,0.00,118.00,VWS V14.01,2013-07-23 21:14:00,
2013-07-23 16:19:00,69.3,50.9,29.88,NNE,22,2.0,7.0,52,0.00,,BKN050,0.00,118.00,VWS V14.01,2013-07-23 21:19:00,
2013-07-23 16:20:00,69.3,50.9,29.88,NNE,28,3.0,7.0,52,0.00,,CLR,0.00,118.00,VWS V14.01,2013-07-23 21:20:00,
2013-07-23 16:24:00,69.4,50.5,29.88,NW,325,5.0,10.0,51,0.00,,BKN050,0.00,84.00,VWS V14.01,2013-07-23 21:24:00,
2013-07-23 16:29:00,69.4,51.0,29.88,North,349,4.0,10.0,52,0.00,,BKN050,0.00,98.00,VWS V14.01,2013-07-23 21:29:00,
2013-07-23 16:30:00,69.4,51.0,29.88,NNW,348,3.0,10.0,52,0.00,,CLR,0.00,98.00,VWS V14.01,2013-07-23 21:30:00,
2013-07-23 16:35:00,69.4,51.0,29.88,NNE,19,6.0,9.0,52,0.00,,BKN050,0.00,83.00,VWS V14.01,2013-07-23 21:35:00,
2013-07-23 16:40:00,69.3,50.9,29.87,NE,43,2.0,10.0,52,0.00,,BKN050,0.00,70.00,VWS V14.01,2013-07-23 21:40:00,
2013-07-23 16:45:00,69.2,50.8,29.88,North,9,6.0,9.0,52,0.00,,BKN050,0.00,86.00,VWS V14.01,2013-07-23 21:45:00,
2013-07-23 16:50:00,69.2,50.3,29.88,NNW,331,5.0,9.0,51,0.00,,BKN050,0.00,86.00,VWS V14.01,2013-07-23 21:50:00,
2013-07-23 16:55:00,69.4,50.5,29.88,NE,38,1.0,6.0,51,0.00,,BKN050,0.00,128.00,VWS V14.01,2013-07-23 21:55:00,
2013-07-23 17:00:00,69.5,49.5,29.88,NNW,348,3.0,7.0,49,0.00,,BKN050,0.00,54.00,VWS V14.01,2013-07-23 22:00:00,
2013-07-23 17:05:00,69.6,50.7,29.88,NNW,348,4.0,9.0,51,0.00,,BKN050,0.00,169.00,VWS V14.01,2013-07-23 22:05:00,
2013-07-23 17:10:00,70.1,49.5,29.88,NNW,343,3.0,9.0,48,0.00,,BKN050,0.00,77.00,VWS V14.01,2013-07-23 22:10:00,
2013-07-23 17:15:00,70.2,50.2,29.87,NE,40,2.0,7.0,49,0.00,,BKN050,0.00,67.00,VWS V14.01,2013-07-23 22:15:00,
2013-07-23 17:20:00,70.3,49.7,29.87,NNW,333,7.0,7.0,48,0.00,,OVC050,0.00,81.00,VWS V14.01,2013-07-23 22:20:00,
2013-07-23 17:25:00,70.3,49.1,29.87,North,11,4.0,7.0,47,0.00,,OVC050,0.00,62.00,VWS V14.01,2013-07-23 22:25:00,
2013-07-23 17:30:00,70.3,50.3,29.87,NNE,14,5.0,5.0,49,0.00,,OVC050,0.00,54.00,VWS V14.01,2013-07-23 22:30:00,
2013-07-23 17:35:00,70.1,49.5,29.88,North,5,1.0,8.0,48,0.00,,OVC050,0.00,81.00,VWS V14.01,2013-07-23 22:35:00,
2013-07-23 17:40:00,70.1,50.6,29.88,North,360,4.0,5.0,50,0.00,,OVC050,0.00,25.00,VWS V14.01,2013-07-23 22:40:00,
2013-07-23 17:45:00,69.9,51.0,29.88,North,355,2.0,7.0,51,0.00,,OVC050,0.00,33.00,VWS V14.01,2013-07-23 22:45:00,
2013-07-23 17:50:00,69.8,51.4,29.88,North,355,3.0,5.0,52,0.00,,BKN050,0.00,51.00,VWS V14.01,2013-07-23 22:50:00,
2013-07-23 17:55:00,69.7,50.2,29.88,NE,36,6.0,11.0,50,0.00,,BKN050,0.00,23.00,VWS V14.01,2013-07-23 22:55:00,
2013-07-23 18:00:00,69.6,51.2,29.88,NE,54,6.0,6.0,52,0.00,,BKN050,0.00,51.00,VWS V14.01,2013-07-23 23:00:00,
2013-07-23 18:05:00,69.6,50.2,29.87,NW,324,5.0,10.0,50,0.00,,SCT050,0.00,46.00,VWS V14.01,2013-07-23 23:05:00,
2013-07-23 18:10:00,69.6,50.2,29.87,NNW,347,1.0,5.0,50,0.00,,SCT050,0.00,72.00,VWS V14.01,2013-07-23 23:10:00,
2013-07-23 18:15:00,69.7,49.7,29.87,North,355,2.0,10.0,49,0.00,,SCT050,0.00,26.00,VWS V14.01,2013-07-23 23:15:00,
2013-07-23 18:20:00,69.7,50.8,29.87,NNW,345,2.0,11.0,51,0.00,,CLR,0.00,35.00,VWS V14.01,2013-07-23 23:20:00,
2013-07-23 18:21:00,69.7,50.2,29.87,North,355,5.0,6.0,50,0.00,,BKN050,0.00,37.00,VWS V14.01,2013-07-23 23:21:00,
2013-07-23 18:26:00,69.6,49.6,29.87,NNW,334,5.0,7.0,49,0.00,,BKN050,0.00,69.00,VWS V14.01,2013-07-23 23:26:00,
2013-07-23 18:30:00,69.6,50.2,29.88,North,5,6.0,10.0,50,0.00,,CLR,0.00,58.00,VWS V14.01,2013-07-23 23:30:00,
2013-07-23 18:31:00,69.6,50.2,29.88,North,360,2.0,6.0,50,0.00,,BKN050,0.00,42.00,VWS V14.01,2013-07-23 23:31:00,
2013-07-23 18:36:00,69.6,51.2,29.88,North,360,5.0,9.0,52,0.00,,BKN050,0.00,39.00,VWS V14.01,2013-07-23 23:36:00,
2013-07-23 18:40:00,69.6,49.6,29.88,NNE,15,5.0,9.0,49,0.00,,CLR,0.00,32.00,VWS V14.01,2013-07-23 23:40:00,
2013-07-23 18:41:00,69.7,50.8,29.87,NNE,15,6.0,8.0,51,0.00,,BKN050,0.00,30.00,VWS V14.01,2013-07-23 23:41:00,
2013-07-23 18:46:00,69.7,49.7,29.88,NNE,24,7.0,11.0,49,0.00,,BKN050,0.00,33.00,VWS V14.01,2013-07-23 23:46:00,
2013-07-23 18:50:00,69.6,50.2,29.88,NNE,29,4.0,11.0,50,0.00,,CLR,0.00,37.00,VWS V14.01,2013-07-23 23:50:00,
2013-07-23 18:51:00,69.6,50.2,29.88,NNW,333,3.0,7.0,50,0.00,,BKN050,0.00,54.00,VWS V14.01,2013-07-23 23:51:00,
2013-07-23 18:56:00,69.5,49.5,29.88,North,355,6.0,10.0,49,0.00,,BKN050,0.00,26.00,VWS V14.01,2013-07-23 23:56:00,
2013-07-23 19:00:00,69.4,50.0,29.88,NNE,32,6.0,10.0,50,0.00,,CLR,0.00,23.00,VWS V14.01,2013-07-24 00:00:00,
2013-07-23 19:02:00,69.4,51.0,29.88,North,355,3.0,8.0,52,0.00,,SCT050,0.00,23.00,VWS V14.01,2013-07-24 00:02:00,
2013-07-23 19:07:00,69.3,50.9,29.88,North,355,4.0,9.0,52,0.00,,SCT050,0.00,21.00,VWS V14.01,2013-07-24 00:07:00,
2013-07-23 19:10:00,69.2,49.8,29.88,NNW,348,2.0,9.0,50,0.00,,CLR,0.00,19.00,VWS V14.01,2013-07-24 00:10:00,
2013-07-23 19:12:00,69.2,51.4,29.88,NNE,19,6.0,7.0,53,0.00,,SCT050,0.00,19.00,VWS V14.01,2013-07-24 00:12:00,
2013-07-23 19:17:00,69.2,51.9,29.88,NNW,328,4.0,7.0,54,0.00,,CLR,0.00,18.00,VWS V14.01,2013-07-24 00:17:00,
2013-07-23 19:20:00,69.1,50.8,29.88,NNW,348,4.0,7.0,52,0.00,,CLR,0.00,16.00,VWS V14.01,2013-07-24 00:20:00,
2013-07-23 19:22:00,69.1,50.2,29.88,North,360,5.0,7.0,51,0.00,,CLR,0.00,16.00,VWS V14.01,2013-07-24 00:22:00,
2013-07-23 19:27:00,69.0,50.1,29.89,NNW,328,1.0,7.0,51,0.00,,CLR,0.00,14.00,VWS V14.01,2013-07-24 00:27:00,
2013-07-23 19:30:00,68.9,50.6,29.89,North,9,2.0,7.0,52,0.00,,CLR,0.00,14.00,VWS V14.01,2013-07-24 00:30:00,
2013-07-23 19:32:00,68.9,51.1,29.89,North,5,2.0,3.0,53,0.00,,CLR,0.00,12.00,VWS V14.01,2013-07-24 00:32:00,
2013-07-23 19:37:00,68.8,50.5,29.89,North,355,0.0,7.0,52,0.00,,CLR,0.00,12.00,VWS V14.01,2013-07-24 00:37:00,
2013-07-23 19:40:00,68.7,50.4,29.89,NNW,340,1.0,7.0,52,0.00,,CLR,0.00,11.00,VWS V14.01,2013-07-24 00:40:00,
2013-07-23 19:42:00,68.6,50.3,29.89,NNW,340,2.0,3.0,52,0.00,,CLR,0.00,11.00,VWS V14.01,2013-07-24 00:42:00,
2013-07-23 19:47:00,68.5,50.7,29.90,NNW,337,1.0,5.0,53,0.00,,CLR,0.00,9.00,VWS V14.01,2013-07-24 00:47:00,
2013-07-23 19:50:00,68.4,51.1,29.90,NNW,348,4.0,6.0,54,0.00,,CLR,0.00,9.00,VWS V14.01,2013-07-24 00:50:00,
2013-07-23 19:52:00,68.3,50.0,29.89,NNW,348,0.0,5.0,52,0.00,,CLR,0.00,7.00,VWS V14.01,2013-07-24 00:52:00,
2013-07-23 19:57:00,68.1,50.8,29.90,NNE,15,0.0,7.0,54,0.00,,CLR,0.00,7.00,VWS V14.01,2013-07-24 00:57:00,
2013-07-23 20:00:00,68.0,50.2,29.90,North,355,3.0,7.0,53,0.00,,CLR,0.00,5.00,VWS V14.01,2013-07-24 01:00:00,
2013-07-23 20:02:00,67.9,49.7,29.90,North,350,3.0,6.0,52,0.00,,CLR,0.00,5.00,VWS V14.01,2013-07-24 01:02:00,
2013-07-23 20:07:00,67.7,50.0,29.90,NNW,338,1.0,6.0,53,0.00,,CLR,0.00,0.00,VWS V14.01,2013-07-24 01:07:00,
2013-07-23 20:10:00,67.6,49.9,29.90,North,360,3.0,6.0,53,0.00,,CLR,0.00,0.00,VWS V14.01,2013-07-24 01:10:00,
2013-07-23 20:12:00,67.5,49.8,29.90,NNE,26,3.0,4.0,53,0.00,,CLR,0.00,0.00,VWS V14.01,2013-07-24 01:12:00,
2013-07-23 20:18:00,67.3,50.6,29.91,NNE,25,0.0,4.0,55,0.00,,CLR,0.00,0.00,VWS V14.01,2013-07-24 01:18:00,
2013-07-23 20:20:00,67.2,50.0,29.91,NNE,25,1.0,4.0,54,0.00,,CLR,0.00,0.00,VWS V14.01,2013-07-24 01:20:00,
2013-07-23 20:23:00,67.1,50.4,29.91,NNW,348,1.0,4.0,55,0.00,,CLR,0.00,0.00,VWS V14.01,2013-07-24 01:23:00,
2013-07-23 20:28:00,66.9,50.2,29.90,NNW,348,0.0,4.0,55,0.00,,CLR,0.00,0.00,VWS V14.01,2013-07-24 01:28:00,
2013-07-23 20:30:00,66.8,50.1,29.90,NNW,348,0.0,4.0,55,0.00,,CLR,0.00,0.00,VWS V14.01,2013-07-24 01:30:00,
2013-07-23 20:33:00,66.7,50.5,29.91,NNW,348,0.0,1.0,56,0.00,,CLR,0.00,0.00,VWS V14.01,2013-07-24 01:33:00,
2013-07-23 20:38:00,66.4,50.7,29.91,North,349,0.0,2.0,57,0.00,,CLR,0.00,0.00,VWS V14.01,2013-07-24 01:38:00,
2013-07-23 20:40:00,66.3,50.6,29.91,North,349,0.0,2.0,57,0.00,,CLR,0.00,0.00,VWS V14.01,2013-07-24 01:40:00,
2013-07-23 20:43:00,66.1,50.4,29.91,North,349,0.0,1.0,57,0.00,,CLR,0.00,0.00,VWS V14.01,2013-07-24 01:43:00,
2013-07-23 20:48:00,65.8,49.7,29.91,North,349,1.0,2.0,56,0.00,,CLR,0.00,0.00,VWS V14.01,2013-07-24 01:48:00,
2013-07-23 20:50:00,65.7,49.6,29.91,North,349,0.0,3.0,56,0.00,,CLR,0.00,0.00,VWS V14.01,2013-07-24 01:50:00,
2013-07-23 20:53:00,65.5,50.3,29.91,North,349,0.0,2.0,58,0.00,,CLR,0.00,0.00,VWS V14.01,2013-07-24 01:53:00,
2013-07-23 20:58:00,65.3,49.7,29.91,North,349,0.0,3.0,57,0.00,,CLR,0.00,0.00,VWS V14.01,2013-07-24 01:58:00,
2013-07-23 21:00:00,65.2,49.6,29.91,North,349,1.0,3.0,57,0.00,,CLR,0.00,0.00,VWS V14.01,2013-07-24 02:00:00,
2013-07-23 21:03:00,65.0,49.4,29.91,North,349,0.0,3.0,57,0.00,,CLR,0.00,0.00,VWS V14.01,2013-07-24 02:03:00,
2013-07-23 21:08:00,64.8,50.2,29.91,NNW,348,0.0,3.0,59,0.00,,CLR,0.00,0.00,VWS V14.01,2013-07-24 02:08:00,
2013-07-23 21:10:00,64.8,49.2,29.91,NNW,348,0.0,3.0,57,0.00,,CLR,0.00,0.00,VWS V14.01,2013-07-24 02:10:00,
2013-07-23 21:13:00,64.7,49.6,29.92,North,349,0.0,2.0,58,0.00,,CLR,0.00,0.00,VWS V14.01,2013-07-24 02:13:00,
2013-07-23 21:18:00,64.5,49.4,29.92,North,360,0.0,3.0,58,0.00,,CLR,0.00,0.00,VWS V14.01,2013-07-24 02:18:00,
2013-07-23 21:20:00,64.5,49.4,29.92,North,360,1.0,3.0,58,0.00,,CLR,0.00,0.00,VWS V14.01,2013-07-24 02:20:00,
2013-07-23 21:23:00,64.3,49.7,29.92,North,360,3.0,4.0,59,0.00,,CLR,0.00,0.00,VWS V14.01,2013-07-24 02:23:00,
2013-07-23 21:28:00,64.1,49.0,29.92,North,5,0.0,4.0,58,0.00,,CLR,0.00,0.00,VWS V14.01,2013-07-24 02:28:00,
2013-07-23 21:30:00,64.1,49.5,29.93,North,5,0.0,4.0,59,0.00,,CLR,0.00,0.00,VWS V14.01,2013-07-24 02:30:00,
2013-07-23 21:34:00,64.0,48.9,29.93,North,5,1.0,4.0,58,0.00,,CLR,0.00,0.00,VWS V14.01,2013-07-24 02:34:00,
2013-07-23 21:39:00,63.9,49.3,29.93,North,5,0.0,4.0,59,0.00,,CLR,0.00,0.00,VWS V14.01,2013-07-24 02:39:00,
2013-07-23 21:40:00,63.9,49.8,29.93,North,5,0.0,4.0,60,0.00,,CLR,0.00,0.00,VWS V14.01,2013-07-24 02:40:00,
2013-07-23 21:44:00,63.7,49.6,29.93,North,5,1.0,2.0,60,0.00,,CLR,0.00,0.00,VWS V14.01,2013-07-24 02:44:00,
2013-07-23 21:49:00,63.5,48.9,29.94,North,5,0.0,2.0,59,0.00,,CLR,0.00,0.00,VWS V14.01,2013-07-24 02:49:00,
2013-07-23 21:50:00,63.5,49.4,29.94,North,5,0.0,2.0,60,0.00,,CLR,0.00,0.00,VWS V14.01,2013-07-24 02:50:00,
2013-07-23 21:54:00,63.3,49.2,29.94,North,5,0.0,3.0,60,0.00,,CLR,0.00,0.00,VWS V14.01,2013-07-24 02:54:00,
2013-07-23 21:59:00,63.1,49.0,29.94,North,5,0.0,4.0,60,0.00,,CLR,0.00,0.00,VWS V14.01,2013-07-24 02:59:00,
2013-07-23 22:00:00,63.1,49.0,29.94,North,5,0.0,4.0,60,0.00,,CLR,0.00,0.00,VWS V14.01,2013-07-24 03:00:00,
2013-07-23 22:04:00,62.9,48.8,29.94,North,360,1.0,3.0,60,0.00,,CLR,0.00,0.00,VWS V14.01,2013-07-24 03:04:00,
2013-07-23 22:09:00,62.7,48.6,29.94,NNE,13,0.0,3.0,60,0.00,,CLR,0.00,0.00,VWS V14.01,2013-07-24 03:09:00,
2013-07-23 22:10:00,62.7,48.6,29.94,North,5,3.0,4.0,60,0.00,,CLR,0.00,0.00,VWS V14.01,2013-07-24 03:10:00,
2013-07-23 22:14:00,62.6,49.4,29.94,North,9,3.0,3.0,62,0.00,,CLR,0.00,0.00,VWS V14.01,2013-07-24 03:14:00,
2013-07-23 22:19:00,62.5,49.3,29.94,North,9,1.0,4.0,62,0.00,,CLR,0.00,0.00,VWS V14.01,2013-07-24 03:19:00,
2013-07-23 22:20:00,62.5,49.3,29.94,North,9,0.0,4.0,62,0.00,,CLR,0.00,0.00,VWS V14.01,2013-07-24 03:20:00,
2013-07-23 22:24:00,62.3,48.7,29.94,North,9,2.0,3.0,61,0.00,,CLR,0.00,0.00,VWS V14.01,2013-07-24 03:24:00,
2013-07-23 22:29:00,62.2,48.6,29.95,North,5,0.0,3.0,61,0.00,,CLR,0.00,0.00,VWS V14.01,2013-07-24 03:29:00,
2013-07-23 22:30:00,62.2,48.6,29.95,North,5,0.0,3.0,61,0.00,,CLR,0.00,0.00,VWS V14.01,2013-07-24 03:30:00,
2013-07-23 22:34:00,62.1,48.5,29.95,North,5,0.0,1.0,61,0.00,,CLR,0.00,0.00,VWS V14.01,2013-07-24 03:34:00,
2013-07-23 22:39:00,61.9,48.8,29.95,North,5,0.0,1.0,62,0.00,,CLR,0.00,0.00,VWS V14.01,2013-07-24 03:39:00,
2013-07-23 22:40:00,61.9,48.8,29.95,North,5,0.0,1.0,62,0.00,,CLR,0.00,0.00,VWS V14.01,2013-07-24 03:40:00,
2013-07-23 22:44:00,61.7,48.6,29.95,North,5,0.0,1.0,62,0.00,,CLR,0.00,0.00,VWS V14.01,2013-07-24 03:44:00,
2013-07-23 22:49:00,61.5,48.4,29.96,North,5,0.0,1.0,62,0.00,,CLR,0.00,0.00,VWS V14.01,2013-07-24 03:49:00,
2013-07-23 22:50:00,61.4,48.3,29.96,North,5,0.0,1.0,62,0.00,,CLR,0.00,0.00,VWS V14.01,2013-07-24 03:50:00,
2013-07-23 22:54:00,61.3,49.0,29.95,North,5,1.0,1.0,64,0.00,,CLR,0.00,0.00,VWS V14.01,2013-07-24 03:54:00,
2013-07-23 22:59:00,61.1,48.4,29.95,North,9,0.0,4.0,63,0.00,,CLR,0.00,0.00,VWS V14.01,2013-07-24 03:59:00,
2013-07-23 23:00:00,61.1,48.4,29.95,North,5,0.0,4.0,63,0.00,,CLR,0.00,0.00,VWS V14.01,2013-07-24 04:00:00,
2013-07-23 23:01:00,61.1,48.8,29.95,North,5,0.0,1.0,64,0.00,,CLR,0.00,0.00,VWS V14.01,2013-07-24 04:01:00,
2013-07-23 23:06:00,60.9,49.1,29.95,North,5,0.0,2.0,65,0.00,,CLR,0.00,0.00,VWS V14.01,2013-07-24 04:06:00,
2013-07-23 23:10:00,60.8,48.6,29.95,North,5,0.0,2.0,64,0.00,,CLR,0.00,0.00,VWS V14.01,2013-07-24 04:10:00,
2013-07-23 23:11:00,60.8,48.6,29.95,North,5,1.0,1.0,64,0.00,,CLR,0.00,0.00,VWS V14.01,2013-07-24 04:11:00,
2013-07-23 23:16:00,60.6,48.4,29.95,North,10,3.0,4.0,64,0.00,,CLR,0.00,0.00,VWS V14.01,2013-07-24 04:16:00,
2013-07-23 23:20:00,60.5,48.7,29.95,North,10,1.0,4.0,65,0.00,,CLR,0.00,0.00,VWS V14.01,2013-07-24 04:20:00,
2013-07-23 23:21:00,60.5,48.3,29.95,North,10,0.0,1.0,64,0.00,,CLR,0.00,0.00,VWS V14.01,2013-07-24 04:21:00,
2013-07-23 23:26:00,60.4,48.6,29.95,North,10,1.0,1.0,65,0.00,,CLR,0.00,0.00,VWS V14.01,2013-07-24 04:26:00,
2013-07-23 23:30:00,60.2,48.4,29.95,North,10,0.0,2.0,65,0.00,,CLR,0.00,0.00,VWS V14.01,2013-07-24 04:30:00,
2013-07-23 23:31:00,60.2,48.4,29.95,North,10,0.0,1.0,65,0.00,,CLR,0.00,0.00,VWS V14.01,2013-07-24 04:31:00,
2013-07-23 23:36:00,60.1,48.3,29.96,North,10,0.0,1.0,65,0.00,,CLR,0.00,0.00,VWS V14.01,2013-07-24 04:36:00,
2013-07-23 23:40:00,60.0,48.2,29.96,North,10,0.0,2.0,65,0.00,,CLR,0.00,0.00,VWS V14.01,2013-07-24 04:40:00,
2013-07-23 23:41:00,59.9,48.1,29.96,North,10,0.0,0.0,65,0.00,,CLR,0.00,0.00,VWS V14.01,2013-07-24 04:41:00,
2013-07-23 23:46:00,59.8,48.4,29.96,North,10,0.0,0.0,66,0.00,,CLR,0.00,0.00,VWS V14.01,2013-07-24 04:46:00,
2013-07-23 23:50:00,59.6,48.2,29.96,North,10,0.0,0.0,66,0.00,,CLR,0.00,0.00,VWS V14.01,2013-07-24 04:50:00,
2013-07-23 23:51:00,59.5,48.2,29.96,North,10,0.0,0.0,66,0.00,,CLR,0.00,0.00,VWS V14.01,2013-07-24 04:51:00,
2013-07-23 23:56:00,59.1,47.8,29.96,North,10,0.0,0.0,66,0.00,,CLR,0.00,0.00,VWS V14.01,2013-07-24 04:56:00,